Wind_Speed
5 5 5 5 5 4 4 4 3 3 3 2 1 1 1 1 0 0 1 1 2 2 3 3 4 4 4 4 4 5 5 5 5 6 6 7 6 7 7 7 8 8 8
4 4 4 4 3 3 3 3 3 2 1 0 0 0 1 1 1 1 1 2 2 3 4 4 5 5 5 5 6 6 6 6 7 7 7 7 8 7 8 8 8 8 9
4 4 3 3 3 3 3 2 2 1 1 1 1 2 2 2 2 2 3 3 4 4 5 6 6 6 6 6 7 7 7 7 7 7 8 8 8 9 10 10 9 10 10
2 3 3 3 3 3 3 3 2 2 3 2 2 3 3 3 3 4 4 5 5 6 7 7 7 6 7 8 8 9 9 9 9 8 8 9 9 10 11 11 11 11 12
1 2 2 2 3 3 3 4 4 4 4 4 4 4 5 5 5 6 6 6 7 8 8 8 8 8 8 10 10 10 10 10 10 10 10 11 11 12 12 12 13 14 14
0 1 2 2 3 3 4 4 4 4 4 5 5 6 6 6 7 8 8 8 8 9 9 9 9 9 10 11 11 11 12 13 13 13 13 13 13 13 13 14 15 15 15
1 1 2 2 3 4 4 5 5 5 5 6 6 6 7 8 8 9 9 10 10 10 10 11 11 12 12 12 13 13 14 14 14 15 14 14 15 15 15 15 16 16 16
2 2 2 3 4 4 5 6 6 6 7 7 7 8 8 9 10 10 10 11 12 12 12 13 13 13 14 14 14 15 15 14 14 15 15 16 16 16 17 17 16 17 17
3 3 4 4 4 5 6 7 7 7 8 9 9 9 9 10 11 11 12 12 13 14 14 15 15 15 15 15 15 15 15 15 15 16 16 17 16 16 17 17 17 17 18
4 4 4 5 6 6 7 8 8 9 9 10 10 11 11 12 13 13 13 14 15 16 16 16 16 16 16 16 16 16 16 17 16 16 16 17 17 17 18 18 18 18 19
4 4 5 6 6 7 7 8 9 9 9 10 10 11 12 13 14 14 15 15 16 16 17 16 16 16 16 16 16 16 17 17 16 17 18 18 18 18 19 19 18 19 20
5 5 6 6 7 7 7 8 9 9 10 11 11 12 12 13 14 15 16 16 16 16 16 16 16 16 17 17 17 17 17 17 17 17 17 17 18 19 19 19 20 20 21
6 6 7 7 8 8 9 9 10 10 11 11 12 12 13 14 15 15 16 16 16 16 16 16 16 16 16 17 17 17 17 17 17 17 17 18 18 19 20 21 21 22 22
7 7 7 8 8 9 9 10 11 11 11 12 12 12 13 14 15 16 16 16 16 16 16 16 16 16 16 16 17 18 18 18 18 18 18 18 19 20 20 21 21 22 23
8 8 8 8 9 9 10 11 11 11 12 12 13 13 13 14 15 15 15 16 16 16 16 16 17 17 16 17 17 18 18 18 18 19 19 19 20 21 22 22 22 23 24
10 10 10 10 10 10 10 11 11 12 13 13 13 14 13 14 14 14 15 15 15 16 16 17 17 18 17 16 17 17 17 18 18 19 20 20 21 21 22 22 23 23 24
11 11 10 11 11 11 11 11 12 12 13 14 14 14 14 14 14 15 15 15 15 15 16 16 16 17 17 17 17 18 19 19 20 21 21 21 21 22 23 23 24 24 24
13 13 12 12 12 11 11 11 12 12 12 13 14 13 13 14 14 15 15 15 15 15 15 16 16 17 17 18 18 19 20 20 20 20 21 21 22 23 23 24 25 26 26
14 14 14 13 13 12 12 12 12 13 13 13 13 13 14 14 15 15 15 15 15 16 16 16 16 17 18 18 18 19 19 20 20 20 21 22 23 23 24 25 25 26 27
16 15 15 14 13 13 13 13 14 14 14 14 14 14 14 15 15 15 16 16 16 16 17 17 17 17 17 17 18 18 19 20 20 21 22 23 23 24 25 25 26 27 27
16 15 15 15 14 14 13 14 14 14 14 14 15 15 16 16 16 16 16 16 16 16 16 17 17 17 17 18 18 19 20 20 21 22 23 23 24 25 25 26 27 27 27
18 16 16 15 14 14 14 14 15 14 15 15 15 16 16 16 16 16 16 16 16 16 17 17 17 17 18 18 19 20 20 21 22 23 24 24 25 25 26 26 27 27 27
18 17 17 16 15 15 15 14 14 16 16 16 16 16 16 16 16 17 17 17 17 17 17 18 18 18 18 19 20 20 21 22 23 24 25 25 26 26 26 27 27 27 27
19 18 17 16 16 15 15 15 15 16 16 16 16 16 16 17 17 18 18 17 17 18 18 18 18 19 20 20 21 22 23 23 24 25 25 26 26 27 28 27 27 27 27
19 19 18 17 17 16 16 16 17 17 17 17 17 17 18 18 18 18 18 18 19 19 19 20 20 20 21 21 22 23 24 25 25 25 26 26 27 27 27 27 28 28 28
21 20 19 18 18 17 17 18 18 18 18 18 18 18 19 19 19 19 19 20 20 20 20 21 21 21 22 22 23 23 24 25 26 26 26 27 27 27 28 28 29 29 29
Wind_Direction
136 141 136 134 134 132 129 127 129 119 110 104 89 83 70 79 123 284 270 274 278 276 278 267 263 255 257 263 266 265 267 268 268 276 280 278 278 281 276 281 281 277 277
144 149 151 152 148 143 139 139 137 128 120 114 23 315 301 293 279 277 291 290 289 294 289 283 277 271 272 272 269 268 269 271 273 279 282 285 280 283 283 279 280 283 281
146 157 164 177 177 174 174 175 176 183 261 272 282 285 283 284 283 280 294 301 291 291 291 286 284 282 280 280 279 278 275 276 278 280 282 288 287 288 290 281 281 283 283
147 174 190 195 198 201 205 217 237 253 267 270 279 281 280 280 284 285 287 290 291 288 288 288 288 285 279 281 281 283 281 282 283 283 283 287 287 287 291 285 282 283 283
156 194 210 218 217 219 228 241 254 267 270 273 281 282 283 285 291 291 289 289 289 286 287 287 285 284 282 283 280 280 283 284 284 285 284 286 286 287 285 284 285 285 284
265 237 249 246 238 237 240 248 261 274 270 275 283 284 283 287 291 290 286 289 294 291 287 284 282 281 280 282 280 279 281 283 282 283 283 282 283 283 284 282 283 283 282
320 284 269 262 255 254 257 261 266 274 274 273 282 283 285 290 292 290 290 291 292 294 291 287 284 282 281 281 281 281 284 282 282 282 283 284 285 286 287 290 284 283 284
317 299 277 268 266 269 273 275 273 277 282 280 283 282 286 287 290 290 290 294 294 291 289 288 286 286 283 280 281 281 281 284 284 281 282 283 284 286 289 287 285 284 284
306 297 287 278 276 278 277 279 277 278 282 283 285 283 285 286 287 289 289 293 296 292 292 291 288 289 286 280 282 281 281 283 281 280 282 282 285 286 288 285 284 282 285
301 294 293 292 283 280 282 283 281 281 284 288 287 287 285 286 287 288 289 290 291 291 290 289 285 286 286 281 283 283 283 282 282 282 284 283 285 288 290 289 287 284 284
306 297 291 289 286 285 286 285 283 283 286 289 289 288 286 285 286 287 288 288 291 292 292 290 286 285 286 283 283 284 283 284 284 283 284 287 285 286 290 291 291 287 286
315 306 296 293 289 288 287 287 287 289 289 289 289 290 289 287 287 287 289 289 291 292 292 292 290 286 286 284 284 284 285 287 285 285 287 287 287 289 291 292 292 290 288
318 308 302 296 291 288 289 290 291 294 294 292 291 291 291 290 290 290 291 291 291 292 292 292 290 289 287 287 286 286 287 287 285 285 287 287 290 291 291 291 290 291 290
320 311 309 305 299 296 293 292 292 294 295 294 294 293 293 294 295 292 292 293 294 294 292 292 292 292 290 291 288 286 287 286 286 287 288 290 292 295 295 293 291 291 291
329 318 313 310 308 303 296 292 292 292 293 294 293 294 294 297 297 295 293 293 294 294 294 294 294 292 292 292 293 292 291 288 290 291 292 292 293 295 295 295 293 293 293
334 327 320 313 310 306 300 298 298 294 292 294 294 296 296 297 298 298 296 295 296 296 295 295 297 296 294 292 291 291 292 292 293 294 294 296 295 296 298 297 296 297 296
333 327 323 318 312 306 302 301 302 300 298 297 297 297 297 299 299 300 300 299 296 296 297 299 297 294 292 290 293 295 294 295 295 294 294 296 297 296 296 297 297 298 298
331 327 323 319 314 309 305 303 304 303 304 301 300 301 301 301 304 305 304 300 297 297 299 300 296 292 290 293 295 296 296 297 296 296 297 296 297 296 297 298 298 299 300
330 325 321 319 315 311 309 307 305 304 306 306 304 303 302 304 305 305 304 303 301 297 297 297 297 295 293 294 295 297 298 297 297 297 298 299 300 298 299 300 300 300 301
328 324 319 317 315 310 308 308 307 305 305 306 305 304 304 304 306 305 303 302 301 300 299 297 297 297 296 298 299 299 298 298 299 299 301 300 302 303 302 301 301 302 302
323 322 320 316 316 312 307 306 307 307 305 305 305 304 304 303 305 306 305 303 302 302 301 299 299 299 299 299 300 301 299 300 301 301 302 303 304 304 305 304 303 303 302
319 316 317 314 311 308 306 307 308 307 305 304 305 305 304 304 305 304 303 303 303 303 303 301 301 301 301 301 301 302 301 301 302 303 304 305 305 305 305 306 305 304 304
313 313 314 309 305 302 302 305 305 305 303 303 304 304 305 306 306 305 304 304 304 304 303 302 302 302 302 302 303 303 302 302 304 304 304 305 305 305 305 306 306 306 305
307 306 308 307 305 303 304 305 304 304 303 303 304 304 305 306 305 305 304 304 303 303 303 303 301 300 301 301 302 302 303 304 305 305 305 305 305 305 304 305 306 306 306
305 305 303 303 304 305 305 304 305 305 305 305 304 304 303 304 305 306 305 304 303 303 302 301 300 300 300 301 301 301 302 303 305 305 305 305 305 305 305 304 305 305 306
300 301 301 301 301 302 303 302 303 303 302 303 304 304 304 304 304 304 304 304 303 303 303 302 301 300 300 300 301 302 303 303 304 305 306 306 306 306 306 305 305 305 305
Height
5900 5900 5900 5901 5901 5901 5901 5902 5902 5902 5902 5902 5902 5902 5902 5902 5902 5902 5901 5901 5901 5900 5900 5900 5899 5899 5899 5898 5898 5897 5897 5897 5896 5896 5895 5895 5895 5894 5894 5894 5893 5893 5892
5900 5901 5901 5901 5902 5902 5902 5902 5902 5902 5903 5903 5902 5902 5902 5902 5902 5901 5901 5900 5900 5900 5900 5899 5898 5898 5897 5897 5896 5896 5896 5895 5895 5894 5894 5894 5893 5893 5892 5892 5891 5891 5890
5901 5901 5901 5902 5902 5902 5902 5903 5903 5903 5903 5903 5902 5902 5902 5901 5901 5901 5900 5900 5899 5899 5899 5898 5897 5897 5896 5896 5895 5895 5894 5894 5893 5893 5892 5892 5891 5891 5890 5890 5889 5889 5888
5901 5901 5902 5902 5902 5902 5902 5903 5903 5903 5903 5902 5902 5902 5901 5901 5900 5900 5900 5899 5898 5898 5897 5896 5896 5895 5895 5894 5893 5893 5892 5892 5891 5891 5890 5890 5889 5889 5888 5887 5887 5886 5886
5901 5901 5901 5901 5902 5902 5902 5902 5902 5902 5902 5902 5901 5901 5901 5900 5900 5899 5898 5898 5897 5896 5896 5895 5894 5894 5893 5892 5891 5891 5890 5889 5889 5889 5888 5887 5887 5886 5885 5885 5884 5884 5883
5901 5901 5901 5901 5901 5902 5902 5902 5902 5901 5901 5901 5900 5900 5899 5899 5898 5898 5897 5896 5895 5895 5894 5893 5892 5891 5891 5890 5889 5888 5888 5887 5886 5886 5885 5884 5884 5883 5882 5881 5881 5880 5879
5901 5901 5901 5901 5901 5901 5901 5901 5901 5900 5900 5899 5899 5899 5898 5897 5897 5896 5895 5894 5894 5892 5892 5891 5890 5889 5888 5887 5886 5886 5885 5884 5883 5882 5882 5881 5880 5879 5878 5878 5877 5876 5875
5900 5900 5900 5900 5900 5900 5900 5900 5899 5899 5899 5898 5898 5897 5897 5897 5895 5894 5893 5892 5891 5890 5889 5888 5887 5886 5885 5884 5883 5882 5881 5880 5879 5878 5878 5877 5876 5875 5875 5874 5873 5872 5871
5900 5899 5899 5899 5899 5899 5899 5898 5898 5898 5897 5897 5896 5895 5895 5894 5893 5892 5891 5890 5889 5888 5886 5885 5884 5883 5882 5881 5880 5879 5878 5877 5876 5875 5874 5873 5872 5871 5871 5870 5868 5868 5867
5899 5898 5898 5898 5898 5897 5897 5897 5896 5896 5895 5894 5894 5893 5892 5891 5890 5889 5888 5887 5885 5884 5883 5882 5880 5879 5878 5877 5876 5875 5874 5873 5872 5871 5870 5869 5868 5867 5866 5865 5864 5863 5862
5898 5898 5897 5897 5896 5896 5895 5894 5894 5893 5893 5892 5891 5890 5889 5888 5887 5886 5885 5884 5882 5881 5879 5878 5876 5875 5874 5873 5872 5871 5870 5869 5868 5867 5866 5865 5864 5863 5861 5860 5859 5858 5857
5897 5896 5896 5895 5895 5894 5893 5892 5892 5891 5890 5889 5888 5887 5886 5885 5884 5883 5881 5880 5878 5877 5875 5874 5873 5872 5870 5869 5868 5867 5866 5865 5864 5863 5862 5860 5859 5858 5857 5856 5854 5853 5852
5896 5895 5894 5893 5893 5892 5891 5890 5889 5889 5887 5886 5885 5884 5883 5882 5880 5879 5878 5876 5875 5873 5871 5870 5869 5868 5867 5865 5864 5863 5862 5861 5860 5859 5857 5856 5855 5854 5852 5851 5849 5848 5846
5894 5893 5892 5892 5891 5890 5889 5888 5887 5886 5885 5883 5882 5881 5880 5878 5876 5875 5874 5872 5871 5869 5868 5866 5865 5864 5863 5862 5860 5859 5858 5857 5855 5854 5853 5851 5850 5849 5847 5845 5844 5843 5841
5893 5892 5891 5890 5889 5887 5886 5885 5884 5883 5882 5880 5879 5878 5876 5875 5873 5871 5869 5868 5867 5866 5864 5862 5861 5860 5858 5857 5856 5855 5853 5852 5851 5850 5848 5847 5845 5844 5842 5840 5839 5837 5835
5892 5891 5889 5888 5886 5885 5883 5882 5881 5880 5878 5877 5876 5874 5873 5871 5869 5868 5866 5864 5863 5862 5860 5858 5857 5855 5854 5853 5852 5850 5849 5848 5846 5845 5843 5842 5840 5839 5837 5835 5833 5831 5829
5890 5889 5887 5885 5884 5882 5880 5879 5878 5876 5875 5874 5873 5871 5869 5868 5866 5864 5862 5861 5859 5858 5856 5854 5853 5851 5850 5849 5847 5846 5845 5843 5841 5840 5838 5837 5835 5833 5831 5829 5827 5825 5823
5888 5887 5885 5883 5881 5879 5878 5876 5875 5873 5872 5870 5869 5868 5866 5865 5863 5861 5859 5857 5856 5854 5852 5851 5849 5847 5846 5845 5843 5842 5840 5838 5837 5835 5833 5832 5830 5828 5826 5824 5821 5819 5816
5886 5884 5882 5880 5878 5876 5875 5873 5872 5870 5869 5867 5866 5864 5863 5861 5859 5857 5856 5854 5852 5850 5848 5847 5845 5843 5842 5840 5839 5837 5835 5834 5832 5830 5828 5826 5824 5822 5820 5817 5815 5812 5810
5884 5881 5879 5878 5876 5874 5872 5870 5869 5867 5866 5864 5863 5861 5859 5858 5856 5854 5852 5850 5848 5846 5844 5843 5841 5839 5837 5836 5834 5832 5831 5829 5828 5825 5823 5821 5819 5816 5814 5811 5809 5806 5803
5881 5879 5877 5875 5872 5871 5869 5867 5866 5864 5862 5861 5859 5858 5856 5854 5852 5850 5848 5846 5844 5842 5840 5839 5837 5835 5833 5831 5830 5828 5826 5824 5822 5820 5818 5816 5813 5810 5807 5805 5802 5799 5796
5878 5876 5873 5871 5869 5867 5866 5864 5862 5861 5859 5857 5856 5854 5852 5850 5848 5846 5844 5842 5841 5839 5837 5835 5833 5831 5829 5827 5825 5823 5822 5820 5818 5815 5812 5810 5807 5804 5801 5798 5795 5792 5789
5875 5872 5870 5867 5865 5863 5862 5860 5859 5857 5855 5853 5852 5850 5848 5846 5844 5842 5840 5838 5836 5834 5832 5831 5829 5827 5825 5823 5821 5819 5816 5814 5812 5809 5806 5804 5801 5798 5794 5791 5788 5785 5782
5871 5869 5866 5864 5862 5860 5858 5857 5855 5854 5852 5850 5848 5846 5844 5842 5840 5838 5836 5834 5832 5830 5828 5826 5824 5822 5820 5818 5816 5813 5811 5809 5806 5803 5800 5797 5794 5791 5788 5785 5781 5778 5775
5867 5865 5863 5861 5858 5857 5855 5854 5852 5850 5848 5846 5844 5842 5840 5838 5836 5834 5832 5829 5827 5825 5823 5821 5819 5817 5814 5812 5810 5808 5805 5803 5800 5797 5794 5791 5787 5784 5781 5778 5775 5771 5768
5862 5861 5859 5857 5855 5853 5851 5849 5848 5846 5844 5842 5840 5837 5835 5833 5831 5829 5827 5824 5822 5820 5818 5815 5813 5811 5809 5806 5804 5802 5799 5796 5793 5791 5787 5784 5781 5777 5774 5771 5767 5764 5760